[[{"header":{"parameterUnit":"m.s-1","parameterCategory":1,"la1":30.2991,"la2":30.254,"lo1":-89.0895,"lo2":-89.0444,"dy":0.0017,"dx":0.0017,"nx":28,"ny":28,"refTime":"2025-06-15T21:00:00:Z","depth":0,"parameterNumber":2,"parameterNumberName":"U-component_of_WINDS"},"data":[0,0,0,0,0,0,0,0,0,0,0,0,0,0,0,0,0,0,0,0,0,0,0,0,0,0,0,0,0,0,0,0,0,0,0,0,0,0,0,0,0,0,0,0,0,0,0,0,0,0,0,0,0,0,0,0,0,0,0.3436,0.3438,0,0.3568,0.3569,0.3571,0.3627,0.3627,0.3627,0.3626,0.3764,0.3768,0.3771,0,0,0,0,0,0,0,0,0,0,0,0,0,0.3236,0.3239,0.3436,0.3438,0.3439,0.3568,0.3569,0.3571,0.3627,0.3627,0.3627,0.3626,0.3763,0.3767,0.3772,0,0,0,0,0,0,0,0,0,0,0,0,0,0.3341,0.324,0.3436,0.3483,0.3488,0.3567,0.3569,0.3572,0.3627,0.3627,0.3626,0.3626,0.3761,0.3767,0.3772,0.3815,0,0,0.379,0.3793,0,0,0,0,0,0,0,0,0.3335,0.3348,0.3474,0.348,0.3486,0.3581,0.3549,0.3654,0.3627,0.3575,0.3626,0.3626,0.3703,0.3714,0.3739,0.3822,0.3828,0.3791,0.3794,0.3797,0.3798,0,0,0,0,0,0,0,0.3327,0.3343,0.3488,0.3476,0.3483,0.3498,0.3513,0.3569,0.3639,0.3579,0.3583,0.3598,0.3707,0.3734,0.3743,0.383,0.3791,0.3796,0.3799,0.3802,0.3955,0.3955,0,0,0,0,0,0,0.3312,0.3336,0.3484,0.3492,0.3408,0.3502,0.3518,0.3551,0.3639,0.3652,0.3598,0.36,0.3724,0.3736,0.3748,0.3805,0.3797,0.3802,0.3806,0.3954,0.3955,0.3955,0,0,0,0,0,0,0.3307,0.3325,0.3479,0.3416,0.3436,0.3506,0.3542,0.3553,0.3581,0.3653,0.3666,0.3613,0.3724,0.374,0.3798,0.381,0.3805,0.381,0.3953,0.3954,0.3955,0.3917,0,0,0,0,0,0,0.3301,0.3323,0.3339,0.3415,0.3439,0.3526,0.3543,0.3556,0.359,0.3594,0.3671,0.3683,0.3725,0.3789,0.3804,0.3818,0.3815,0.3953,0.3954,0.3955,0.3918,0.3917,0.3916,0,0,0,0,0,0.3294,0.3324,0.334,0.3357,0.3461,0.3526,0.354,0.3587,0.3591,0.3608,0.3655,0.3681,0.3806,0.3795,0.3812,0.3828,0.3952,0.3953,0.3955,0.3918,0.3917,0.3916,0,0,0,0,0,0,0.3248,0.3335,0.3353,0.3408,0.3459,0.3536,0.3559,0.3584,0.3636,0.3638,0.3695,0.3711,0.3765,0.3802,0.3788,0.3874,0.3881,0.3886,0.3848,0.3847,0.3846,0.3836,0.3819,0,0,0,0,0,0.3244,0.3289,0.3363,0.3404,0.3429,0.3489,0.3519,0.3551,0.3607,0.3629,0.368,0.3734,0.3785,0.3818,0.387,0.3923,0.3941,0.3943,0.3942,0.394,0.3944,0.3975,0.3977,0.3959,0.3959,0.3959,0,0,0.3237,0.329,0.3315,0.3396,0.3439,0.3485,0.3507,0.3555,0.359,0.3637,0.3694,0.3734,0.3797,0.3853,0.3881,0.3886,0.3953,0.3942,0.3941,0.3945,0.3977,0.3978,0.398,0.396,0.396,0.396,0,0,0.3247,0.3291,0.3331,0.3373,0.3438,0.3479,0.3488,0.3561,0.3588,0.3647,0.3683,0.3726,0.3813,0.3857,0.3891,0.3917,0.3943,0.3933,0.3928,0.3958,0.3959,0.396,0.397,0.3973,0.3936,0.3936,0.3936,0,0.323,0.33,0.3348,0.3394,0.3429,0.3472,0.3513,0.3552,0.3631,0.3655,0.366,0.377,0.3816,0.3883,0.3889,0.3915,0.3928,0.3924,0.3955,0.3957,0.3959,0.3969,0.3972,0.3934,0.3934,0.3935,0.3935,0,0.3275,0.3323,0.3348,0.3422,0.346,0.3502,0.3558,0.3591,0.3619,0.3658,0.3718,0.3775,0.3838,0.3857,0.3885,0.3928,0.3929,0.3943,0.3952,0.3958,0.3968,0.3973,0.3932,0.3932,0.3933,0.3933,0,0,0.326,0.336,0.3369,0.3403,0.3478,0.3516,0.3561,0.3623,0.365,0.3702,0.3742,0.3815,0.3829,0.3867,0.3901,0.3927,0.3944,0.3939,0.3941,0.3938,0.3995,0.3984,0.3988,0.3962,0.3962,0.3963,0.399,0,0.3281,0.3363,0.3408,0.3471,0.3517,0.3558,0.3598,0.3648,0.3687,0.3731,0.3774,0.3825,0.3839,0.3862,0.389,0.3936,0.3957,0.3935,0.4,0.4002,0.3983,0.3993,0.3982,0.4004,0.3994,0.3995,0.3996,0,0.3316,0.3367,0.3435,0.3505,0.3525,0.356,0.362,0.3662,0.372,0.3746,0.3788,0.3822,0.3872,0.3876,0.3946,0.393,0.3959,0.3986,0.3988,0.3996,0.3999,0.4002,0.4013,0.4016,0.4002,0.4002,0.4001,0,0.3298,0.3385,0.3436,0.3464,0.3547,0.357,0.3606,0.3664,0.3698,0.3751,0.3773,0.3831,0.3863,0.3907,0.3956,0.3954,0.4021,0.4029,0.4045,0.4043,0.4057,0.4056,0.4073,0.4075,0.4075,0.4075,0.4075,0,0.3317,0.3357,0.343,0.3461,0.3508,0.3559,0.3603,0.3642,0.3694,0.3734,0.3774,0.3812,0.3873,0.3918,0.3956,0.4009,0.4023,0.4046,0.4055,0.4042,0.4039,0.4063,0.4062,0.4076,0.4076,0.4076,0.4076,0,0.3305,0.3356,0.3415,0.3488,0.3507,0.3538,0.3601,0.3634,0.3674,0.3725,0.374,0.3803,0.3858,0.3911,0.3985,0.4011,0.4063,0.4076,0.4043,0.4049,0.4061,0.4059,0.4094,0.4102,0.4098,0.4098,0.4098,0,0.3314,0.3346,0.3422,0.3452,0.3486,0.3534,0.3568,0.362,0.3655,0.3724,0.3748,0.3806,0.3856,0.3942,0.3995,0.4052,0.4067,0.4075,0.4076,0.4061,0.4067,0.4065,0.4068,0.4074,0.4074,0.4073,0.4073,0,0.3324,0.3347,0.3396,0.3453,0.3493,0.354,0.3589,0.3612,0.3673,0.371,0.3767,0.3805,0.388,0.3937,0.4,0.4038,0.4066,0.4072,0.4079,0.4066,0.4046,0.4058,0.4041,0.4072,0.4072,0.4072,0.4072,0.4072,0.3323,0.3353,0.3412,0.3464,0.3506,0.3551,0.3586,0.363,0.3678,0.3742,0.377,0.3827,0.3885,0.3973,0.401,0.4056,0.4062,0.4072,0.4075,0.4076,0.4074,0.4038,0.4067,0.4068,0.4068,0.4068,0.4068,0,0.3336,0.3375,0.3423,0.349,0.3531,0.3553,0.3609,0.3642,0.3692,0.3743,0.379,0.3855,0.3911,0.3968,0.4027,0.4053,0.4067,0.4067,0.4066,0.4074,0.4064,0.4053,0.4054,0.4054,0.4054,0.4054,0.4054,0.4054,0.3347,0.3399,0.3429,0.3503,0.3542,0.3598,0.3628,0.367,0.3711,0.3781,0.3828,0.3864,0.3918,0.3981,0.4033,0.4049,0.4069,0.4065,0.4084,0.4074,0.4075,0.4075,0.4065,0.4069,0.4069,0.409,0.409,0.409]},{"header":{"parameterUnit":"m.s-1","parameterCategory":1,"la1":30.2991,"la2":30.254,"lo1":-89.0895,"lo2":-89.0444,"dy":0.0017,"dx":0.0017,"nx":28,"ny":28,"refTime":"2025-06-15T21:00:00:Z","depth":0,"parameterNumber":3,"parameterNumberName":"V-component_of_WINDS"},"data":[0,0,0,0,0,0,0,0,0,0,0,0,0,0,0,0,0,0,0,0,0,0,0,0,0,0,0,0,0,0,0,0,0,0,0,0,0,0,0,0,0,0,0,0,0,0,0,0,0,0,0,0,0,0,0,0,0,0,4.3357,4.3356,0,4.3305,4.3305,4.3304,4.3271,4.3271,4.3271,4.3271,4.3214,4.3213,4.3212,0,0,0,0,0,0,0,0,0,0,0,0,0,4.3423,4.3422,4.3357,4.3356,4.3355,4.3305,4.3305,4.3304,4.3271,4.3271,4.3271,4.3271,4.3215,4.3213,4.3211,0,0,0,0,0,0,0,0,0,0,0,0,0,4.3385,4.3422,4.3357,4.3333,4.3331,4.3305,4.3305,4.3304,4.3272,4.3271,4.3271,4.3271,4.3215,4.3213,4.3211,4.3204,0,0,4.3205,4.3204,0,0,0,0,0,0,0,0,4.3388,4.3383,4.3337,4.3335,4.3332,4.3295,4.3307,4.327,4.3272,4.3294,4.3271,4.3271,4.3241,4.3237,4.3228,4.3201,4.3199,4.3205,4.3204,4.3203,4.3202,0,0,0,0,0,0,0,4.339,4.3385,4.3336,4.3337,4.3333,4.3324,4.3318,4.33,4.3269,4.3292,4.3289,4.3284,4.3239,4.323,4.3226,4.3198,4.3205,4.3203,4.3202,4.3201,4.3164,4.3164,0,0,0,0,0,0,4.3397,4.3387,4.3338,4.3335,4.336,4.3323,4.3317,4.3307,4.327,4.3264,4.3284,4.3283,4.3233,4.3228,4.3224,4.3213,4.3203,4.3201,4.32,4.3164,4.3164,4.3164,0,0,0,0,0,0,4.3399,4.3393,4.334,4.336,4.3353,4.3322,4.3311,4.3306,4.3296,4.3264,4.3258,4.328,4.3233,4.3227,4.321,4.3211,4.32,4.3198,4.3163,4.3164,4.3164,4.3193,0,0,0,0,0,0,4.3401,4.3394,4.3392,4.3361,4.3352,4.3328,4.3311,4.3305,4.3293,4.3291,4.3258,4.3253,4.3232,4.3213,4.3208,4.3208,4.3197,4.3163,4.3163,4.3164,4.3191,4.3194,4.3196,0,0,0,0,0,4.3403,4.3401,4.3392,4.3386,4.3349,4.3328,4.3323,4.33,4.3294,4.3291,4.327,4.3254,4.3212,4.3211,4.3205,4.3205,4.3163,4.3163,4.3164,4.319,4.3193,4.3196,0,0,0,0,0,0,4.3431,4.3396,4.3386,4.3373,4.3354,4.3323,4.3318,4.3304,4.3285,4.3283,4.3255,4.3248,4.3234,4.3217,4.3218,4.3196,4.3185,4.3185,4.3208,4.321,4.3212,4.3217,4.3195,0,0,0,0,0,4.3436,4.3423,4.3393,4.3385,4.3376,4.3349,4.3339,4.3323,4.3301,4.3293,4.3271,4.3249,4.3231,4.3219,4.3201,4.3189,4.3181,4.3185,4.3188,4.319,4.319,4.3182,4.3184,4.3166,4.3166,4.3166,0,0,4.3445,4.3425,4.3418,4.339,4.3373,4.336,4.3342,4.3328,4.3317,4.329,4.3273,4.3256,4.323,4.3216,4.3208,4.3202,4.3193,4.319,4.3192,4.3191,4.3183,4.3185,4.3186,4.3166,4.3166,4.3166,0,0,4.3456,4.3439,4.3431,4.3415,4.3391,4.3373,4.3371,4.3341,4.333,4.3313,4.3292,4.3278,4.3247,4.323,4.3217,4.3222,4.3207,4.3217,4.3229,4.3222,4.3223,4.3224,4.3226,4.3227,4.3216,4.3216,4.3216,0,4.3471,4.3451,4.3428,4.3416,4.3404,4.338,4.3371,4.3356,4.3326,4.3318,4.3312,4.3273,4.3254,4.3235,4.3237,4.3227,4.3223,4.322,4.3225,4.3226,4.3226,4.3228,4.3229,4.3218,4.3218,4.3218,4.3217,0,4.347,4.3457,4.3453,4.3427,4.3414,4.3403,4.3378,4.3368,4.3353,4.3336,4.3319,4.3295,4.3272,4.3266,4.3251,4.3245,4.3242,4.3231,4.3219,4.323,4.3231,4.3232,4.322,4.3219,4.3219,4.3219,0,0,4.3497,4.3459,4.3458,4.3446,4.3417,4.3406,4.3394,4.3372,4.3364,4.3344,4.3333,4.3308,4.3298,4.3283,4.3266,4.326,4.3266,4.3249,4.3248,4.3254,4.3258,4.3267,4.3269,4.3255,4.3255,4.3255,4.3261,0,4.3504,4.3483,4.3462,4.3448,4.3436,4.3413,4.3402,4.3383,4.3366,4.3352,4.3333,4.3316,4.3303,4.3295,4.3288,4.3267,4.3266,4.3266,4.3244,4.3244,4.3252,4.3269,4.3278,4.3285,4.3261,4.3261,4.3261,0,4.3509,4.3492,4.3477,4.3451,4.3444,4.3435,4.3414,4.3401,4.3379,4.3367,4.3351,4.3333,4.3319,4.3309,4.3288,4.3289,4.3278,4.3267,4.3266,4.3264,4.3253,4.3267,4.3286,4.3287,4.3261,4.3261,4.3261,0,4.353,4.3504,4.3492,4.3482,4.345,4.3445,4.3431,4.3408,4.3397,4.3378,4.337,4.3349,4.3338,4.3321,4.3298,4.3293,4.328,4.3268,4.3269,4.327,4.3268,4.3268,4.3286,4.3261,4.3261,4.3261,4.3261,0,4.354,4.3532,4.3501,4.3494,4.3484,4.346,4.345,4.3434,4.3414,4.3403,4.3381,4.337,4.334,4.3325,4.3307,4.3293,4.3287,4.3277,4.3272,4.3279,4.3281,4.3272,4.3272,4.3261,4.3261,4.3261,4.3261,0,4.3563,4.3542,4.3527,4.3499,4.3491,4.3486,4.3461,4.3452,4.3435,4.342,4.3415,4.3387,4.3369,4.3344,4.3318,4.3305,4.3294,4.3286,4.3302,4.3299,4.3302,4.3303,4.3315,4.3316,4.329,4.329,4.3291,0,4.3571,4.3565,4.3536,4.3528,4.3515,4.3501,4.349,4.3466,4.3455,4.3429,4.3424,4.3404,4.3387,4.3359,4.3335,4.3315,4.3307,4.3313,4.3303,4.3311,4.3307,4.3308,4.3308,4.3315,4.3315,4.3316,4.3316,0,4.3588,4.3578,4.3563,4.3545,4.3533,4.3517,4.35,4.3494,4.3466,4.3454,4.3436,4.3423,4.3397,4.3378,4.3355,4.3339,4.3323,4.3319,4.3318,4.3326,4.3336,4.3331,4.3309,4.3319,4.3319,4.3318,4.3318,4.3318,4.3603,4.3597,4.3576,4.3561,4.3546,4.3531,4.3522,4.3504,4.3489,4.3467,4.3453,4.3436,4.3413,4.338,4.3366,4.3351,4.3344,4.3343,4.3343,4.3343,4.3346,4.3338,4.3346,4.3346,4.3346,4.3346,4.3346,0,4.3619,4.3605,4.3591,4.3569,4.3557,4.3544,4.3525,4.3515,4.3501,4.3482,4.3466,4.3446,4.3427,4.3402,4.3382,4.3375,4.3367,4.337,4.3371,4.3367,4.3353,4.3356,4.3377,4.3377,4.3377,4.3377,4.3377,4.3377,4.3626,4.3615,4.3603,4.3584,4.3569,4.3553,4.3543,4.3529,4.3514,4.3493,4.3478,4.3462,4.3441,4.3419,4.3401,4.3394,4.3387,4.3393,4.3384,4.3371,4.3368,4.3366,4.3368,4.3392,4.3392,4.34,4.34,4.34]}]]